Location: Albany
(35.0000°S, 118.0000°E)
Time: 06:16:08
(UTC-04:00)

Vanguard 3 - Visible Passes

Search period start: 31 August 2014 00:00
Search period end: 10 September 2014 00:00
Orbit: 508 x 3279 km, 33.4° (Epoch: 30 August)

Date Brightness Start Highest point End Pass type
(mag) Time Alt. Az. Time Alt. Az. Time Alt. Az.
31 Aug 7.5 16:10:53 54° NNE 16:10:53 54° NNE 16:17:19 10° E visible
01 Sep 9.7 15:03:07 13° E 15:03:07 13° E 15:03:54 10° E visible
01 Sep 7.4 17:07:52 28° WNW 17:10:43 77° N 17:18:59 10° E visible
02 Sep 7.6 16:00:05 50° ENE 16:00:05 50° ENE 16:05:15 10° E visible
03 Sep 7.2 16:57:03 35° WNW 16:59:11 77° N 17:06:43 10° E visible
04 Sep 8.0 15:49:15 39° ENE 15:49:15 39° ENE 15:53:15 10° E visible
04 Sep 7.8 17:54:23 10° W 17:59:29 69° N 18:08:23 10° ENE visible
05 Sep 7.0 16:46:13 45° WNW 16:47:41 75° N 16:54:31 10° E visible
06 Sep 8.5 15:38:26 29° E 15:38:26 29° E 15:41:20 10° E visible
06 Sep 7.6 17:43:11 10° W 17:47:54 61° N 17:55:55 10° ENE visible
07 Sep 6.7 16:35:24 57° WNW 16:36:12 71° N 16:42:24 10° ENE visible
08 Sep 8.9 15:27:38 21° E 15:27:38 21° E 15:29:30 10° E visible
08 Sep 7.6 17:32:23 13° W 17:36:22 51° NNW 17:43:27 10° ENE visible
09 Sep 6.7 16:24:38 62° NNW 16:24:45 63° N 16:30:20 10° ENE visible
